Regional Weather Roundup
Issued by NWS

Home | Current Version | Previous Version | Text Only | Print | Product List | Glossary On
Versions: 1 2 3 4 5 6 7 8 9 10 11 12 13 14 15 16 17 18 19 20 21 22 23 24 25 26 27 28 29 30 31 32 33 34 35 36 37 38 39 40 41 42 43 44 45 46 47 48 49 50
000
ASUS44 KJAN 040403
RWRMS

MISSISSIPPI HOURLY WEATHER ROUNDUP
NATIONAL WEATHER SERVICE JACKSON MS
1100 PM CDT SUN MAY 03 2015

NOTE: "FAIR: INDICATES FEW OR NO CLOUDS BELOW 12,000 FEET WITH NO
SIGNIFICANT WEATHER AND/OR OBSTRUCTIONS TO VISIBILITY.

MSZ001>002-007>008-010>013-018>021-025>028-034>036-040500-
NORTHWEST MISSISSIPPI

CITY           SKY/WX    TMP DP  RH WIND       PRES   REMARKS
CLARKSDALE     FAIR      68  57  68 SE6       30.08S
CLEVELAND      FAIR      69  58  69 S5        30.08R
GREENWOOD      CLEAR     66  57  72 S5        30.09R
GREENVILLE     CLEAR     67  56  67 S5        30.08R
OLIVE BRANCH   CLEAR     66  52  59 SE6       30.09R
OXFORD         LGT RAIN  63  52  67 SE6       30.12R
TUNICA         CLEAR     68  54  60 SE3       30.08S
$$

MSZ003>006-009-014>017-022>024-029>033-037>039-040500-
NORTHEAST MISSISSIPPI

CITY           SKY/WX    TMP DP  RH WIND       PRES   REMARKS
COLUMBUS AFB   MOCLDY    62  54  74 SE6       30.12R
CORINTH        FAIR      63  54  72 SE5       30.11R
GOLDN TRIANGLE PTCLDY    66  52  59 S6        30.12S
STARKVILLE     FAIR      61  54  77 CALM      30.13R
TUPELO         CLEAR     68  52  56 S3        30.12R
$$

MSZ040-058-040500-
CENTRAL MISSISSIPPI

CITY           SKY/WX    TMP DP  RH WIND       PRES   REMARKS
JACKSON INTL   CLEAR     65  54  67 S7        30.12R
JACKSON HAWKNS CLEAR     65  54  67 S8        30.12R
MERIDIAN KEY   CLEAR     59  54  83 SW5       30.15R
MERIDIAN NAS   CLEAR     61  55  81 CALM      30.14R
RAYMOND        CLOUDY    61  55  82 E3        30.11R
VICKSBURG      CLEAR     65  59  81 SE3       30.09R
$$

MSZ059>079-040500-
SOUTH MISSISSIPPI

CITY           SKY/WX    TMP DP  RH WIND       PRES   REMARKS
BROOKHAVEN     FAIR      63  54  72 CALM      30.15R
HATTIESBURG    CLEAR     63  55  75 SE3       30.16R
MCCOMB         CLEAR     63  53  70 SE6       30.14R
NATCHEZ        CLEAR     66  57  72 S10       30.12R
PINE BELT      CLEAR     61  52  72 CALM      30.16R
$$

MSZ080>082-040500-
COASTAL MISSISSIPPI

CITY           SKY/WX    TMP DP  RH WIND       PRES   REMARKS
BILOXI         CLEAR     71  62  75 E3        30.14R
PASCAGOULA     CLEAR     61  59  93 CALM      30.15R
GULFPORT       CLEAR     70  60  70 SE9       30.13S
$$



USA.gov is the U.S. government's official web portal to all federal, state and local government web resources and services.